This is the latest recevied weather packets stored in our database for station/object EA6AMR-10. If no packets are shown the sender has not sent any weather packets the latest 10 day(s).
| Time | Temp. | Humidity | Pressure | Rain* | Wind** | Luminosity | Snow |
|---|---|---|---|---|---|---|---|
| 1777634973 | 23.33° C | 52% | 1020.5 hPa | - | - | - | - |
| 1777634073 | 23.89° C | 52% | 1020.5 hPa | - | - | - | - |
| 1777633173 | 23.89° C | 53% | 1020.5 hPa | - | - | - | - |
| 1777632273 | 24.44° C | 52% | 1020.6 hPa | - | - | - | - |
| 1777631373 | 25° C | 52% | 1020.5 hPa | - | - | - | - |
| 1777630472 | 26.11° C | 51% | 1020.4 hPa | - | - | - | - |
| 1777629605 | 26.11° C | 51% | 1020.3 hPa | - | - | - | - |
| 1777629572 | 26.11° C | 51% | 1020.3 hPa | - | - | - | - |
| 1777628672 | 25° C | 52% | 1020.2 hPa | - | - | - | - |
| 1777627772 | 25° C | 52% | 1020 hPa | - | - | - | - |
| 1777626872 | 25° C | 52% | 1019.8 hPa | - | - | - | - |
| 1777625972 | 25° C | 51% | 1019.7 hPa | - | - | - | - |
| 1777625071 | 24.44° C | 52% | 1019.4 hPa | - | - | - | - |
| 1777624175 | 23.89° C | 52% | 1019.1 hPa | - | - | - | - |
| 1777623275 | 23.33° C | 53% | 1019.3 hPa | - | - | - | - |
| 1777622375 | 22.78° C | 53% | 1019.2 hPa | - | - | - | - |
| 1777621474 | 22.22° C | 53% | 1019.1 hPa | - | - | - | - |
| 1777620574 | 22.22° C | 53% | 1019.2 hPa | - | - | - | - |
| 1777619674 | 22.78° C | 52% | 1019 hPa | - | - | - | - |
| 1777618774 | 23.89° C | 49% | 1018.9 hPa | - | - | - | - |
| 1777617874 | 22.78° C | 50% | 1018.8 hPa | - | - | - | - |
| 1777616974 | 20.56° C | 53% | 1019 hPa | - | - | - | - |
| 1777616073 | 19.44° C | 54% | 1018.9 hPa | - | - | - | - |
| 1777615173 | 18.33° C | 54% | 1018.9 hPa | - | - | - | - |
| 1777614273 | 17.78° C | 54% | 1018.7 hPa | - | - | - | - |
* Rain since midnight (hover to see other rain measurements)
** Current wind speed in m/s (hover to see current wind gust speed)